Location: Rostock
(54.0884°N, 12.1234°E)
Time: 09:24:07
(UTC+01:00)

ISS - Visible Passes

Search period start: 17 February 2019 00:00
Search period end: 27 February 2019 00:00
Orbit: 403 x 411 km, 51.6° (Epoch: 17 February)

Date Brightness Start Highest point End Pass type
(mag) Time Alt. Az. Time Alt. Az. Time Alt. Az.
23 Feb -0.7 06:36:11 10° SSE 06:37:26 12° SE 06:38:42 10° ESE visible
25 Feb -1.3 06:28:08 10° SSW 06:30:35 20° SSE 06:33:05 10° E visible
26 Feb -1.0 05:37:30 10° S 05:39:18 14° SE 05:41:06 10° ESE visible
